Location: Casper
(42.8670°N, 106.3130°W)
Time: 13:29:41
(UTC-06:00)

Daily predictions for brighter satellites

Satellite Brightness Start Highest point End
(mag) Time Altitude Azimuth Time Altitude Azimuth Time Altitude Azimuth
Cosmos 1538 Rocket 4.1 21:13:38 10° NNW 21:19:00 81° ENE 21:24:22 10° SSE
SJ-11-01 4.4 21:14:43 10° SSE 21:19:26 87° WSW 21:24:12 10° NNW
Cosmos 2322 Rocket 2.3 21:15:30 10° NNW 21:21:08 84° WSW 21:26:44 10° SSE
AVUM R/B 4.1 21:25:13 10° SSE 21:26:52 18° ESE 21:28:38 10° ENE
USA 245 4.5 21:27:00 10° ESE 21:28:25 14° ENE 21:29:46 10° NE
Cosmos 1515 Rocket 3.6 21:23:59 10° N 21:28:27 71° E 21:32:50 10° SSE
Cosmos 1908 3.8 21:24:53 10° N 21:28:36 42° ENE 21:32:20 10° SSE
Cosmos 1939 Rocket 2.8 21:25:57 10° SSE 21:29:55 87° ENE 21:33:51 10° NNW
SL-16 R/B 2.4 21:24:47 10° NNW 21:30:28 76° WSW 21:36:07 10° SSE
Cosmos 1980 Rocket 4.0 21:26:19 10° NW 21:31:03 28° WSW 21:35:47 10° SSW
Cosmos 2360 Rocket 2.8 21:26:31 10° NNW 21:31:58 46° ENE 21:37:22 10° SE
CZ-4B R/B 4.4 21:29:03 10° NNE 21:33:45 32° E 21:38:23 10° SSE
In-Cosmos 22 4.4 21:32:49 10° S 21:38:36 84° W 21:44:23 10° N
Nimbus 7 Rocket 4.4 21:36:43 10° NNE 21:42:36 79° ESE 21:48:28 10° SSW
Cosmos 1553 Rocket 4.4 21:36:33 10° NNW 21:42:57 72° W 21:49:13 10° S
Cosmos 2266 Rocket 4.1 21:36:44 10° S 21:42:57 63° E 21:49:05 10° NNE
Cosmos 773 Rocket 4.0 21:40:24 10° NNW 21:45:37 80° ENE 21:50:49 10° SSE
Meteor 2-2 Rocket 4.4 21:41:36 10° N 21:47:37 88° E 21:53:39 10° S
CZ-4 SHROUD 3.1 21:46:45 10° SSE 21:49:52 84° E 21:53:02 10° N
Cosmos 1674 2.7 21:46:07 10° S 21:49:54 65° E 21:53:44 10° NNE
Meteor 2-20 Rocket 4.5 21:45:03 10° S 21:51:08 67° E 21:57:14 10° NNE
Cosmos 2151 3.3 21:47:20 10° SSE 21:51:22 47° E 21:55:25 10° NNE
USA 229 DEB 3.7 21:44:55 10° SSW 21:51:49 78° ESE 21:58:50 10° NE
USA 229 3.7 21:45:02 10° SSW 21:51:56 77° ESE 21:58:57 10° NE
Cosmos 1437 Rocket 2.8 21:48:10 10° NNW 21:51:59 78° W 21:55:48 10° S
MetOp-B 4.2 21:47:58 10° SSE 21:53:19 75° ENE 21:58:40 10° N
Terra 3.5 21:51:24 10° ESE 21:54:48 20° ENE 21:58:13 10° NNE
Cosmos 1805 Rocket 4.4 21:54:12 13° SSE 21:57:43 34° E 22:01:44 10° NNE
Cosmos 1300 3.9 21:54:27 10° NNE 21:57:49 28° ENE 22:00:11 16° SE
Cosmos 1151 Rocket 3.0 21:53:51 10° N 21:58:11 86° E 22:02:24 11° S
Cosmos 968 Rocket 4.5 21:55:17 10° SW 22:00:18 50° WNW 22:05:25 10° N
Cosmos 1833 4.2 21:55:06 10° SSW 22:00:47 74° ESE 22:06:29 10° NNE
Cosmos 2333 Rocket 4.1 21:58:17 10° N 22:02:16 19° NE 22:06:14 10° E
CZ-4 R/B 4.4 21:58:56 10° NNE 22:03:39 42° E 22:07:46 13° SSE
CZ-4C R/B 4.2 22:07:42 18° ESE 22:09:37 29° ENE 22:12:41 10° N
NOSS 3-1 (A) 4.3 22:07:22 12° SSE 22:11:48 28° ESE 22:17:04 10° NE
Cosmos 1328 3.7 22:09:59 11° S 22:13:45 73° E 22:17:43 10° NNE
H-2A R/B 3.8 22:10:10 10° SSW 22:14:08 30° W 22:18:09 10° NW
COSMOS 2428 3.2 22:09:00 10° NNW 22:14:32 49° ENE 22:18:35 18° SE
Cosmos 1707 Rocket 3.9 22:10:50 10° N 22:15:04 48° ENE 22:17:49 20° SE
Envisat 4.1 22:12:06 10° SSW 22:16:52 41° W 22:21:42 10° NNW
Cosmos 1666 Rocket 4.0 22:16:59 19° SSE 22:19:43 42° E 22:23:54 10° NNE
Nadezhda 2 Rocket 4.4 22:14:17 10° S 22:20:26 81° E 22:26:34 10° N
Cosmos 1455 4.4 22:18:49 10° NE 22:20:37 13° ENE 22:21:56 11° E
Cosmos 2058 2.9 22:19:09 16° S 22:22:18 65° E 22:26:23 10° NNE
DELTA 2 R/B (1) 3.8 22:17:40 10° W 22:23:02 51° SSW 22:26:42 20° SE
YAOGAN 6 3.0 22:20:33 15° S 22:23:25 59° W 22:27:01 10° NNW
Cosmos 2112 Rocket 4.0 22:19:08 10° NNW 22:24:23 89° WSW 22:28:09 20° SSE
SL-23 DEB 3.7 22:20:20 10° WNW 22:25:19 85° SW 22:27:14 25° SE
Cosmos 2298 Rocket 4.5 22:22:18 16° SSE 22:26:07 43° ESE 22:31:08 10° NNE
Cosmos 2297 Rocket 4.2 22:25:45 11° E 22:26:12 11° E 22:27:25 10° E
Cosmos 405 4.3 22:23:24 10° NNW 22:26:47 37° W 22:29:54 11° SSW
Meteor 2-11 Rocket 4.5 22:22:18 10° N 22:28:27 68° E 22:32:49 20° SSE
Cosmos 1437 3.3 22:25:23 10° SSW 22:28:37 58° WNW 22:31:53 10° N
SPOT 5 4.0 22:25:37 10° SSW 22:29:46 36° W 22:34:09 10° NNW
ATLAS 2AS CENTAUR R/B 4.1 22:32:38 18° SE 22:34:43 20° ESE 22:40:03 10° ENE
Cosmos 2219 Rocket 3.1 22:29:44 10° N 22:34:54 37° ENE 22:38:24 19° ESE
Cosmos 2237 4.2 22:30:30 10° NNW 22:36:16 77° ENE 22:39:52 24° SSE
Cosmos 1937 Rocket 4.2 22:36:51 24° SE 22:39:02 33° E 22:43:41 10° NE
ARGOS 3.3 22:37:20 18° S 22:41:24 70° WSW 22:46:49 10° NNW
SL-14 R/B 3.2 22:40:46 25° S 22:42:56 74° E 22:46:56 10° NNE
Cosmos 1703 3.8 22:42:50 31° SE 22:44:00 40° E 22:47:41 10° NNE
H-2A R/B 2.2 22:41:19 25° SSE 22:44:28 66° ENE 22:49:52 10° N
IGS 5A 3.9 22:43:55 29° SE 22:45:42 50° ENE 22:49:45 10° N
Cosmos 1271 Rocket 2.9 22:45:02 10° N 22:48:48 54° ENE 22:50:04 35° SE
SL-08 RB Rocket 3.9 22:46:47 22° S 22:49:32 63° WSW 22:54:01 10° NNW
Meteor 1-27 4.3 22:45:27 10° NNW 22:51:10 77° W 22:54:52 22° S
Cosmos 2219 3.3 22:46:00 10° SSW 22:51:45 81° WNW 22:57:33 10° NNE
Cosmos 2242 Rocket 3.6 22:47:34 10° N 22:52:02 72° E 22:54:03 32° SSE
Cosmos 1726 2.2 22:51:50 10° NNW 22:55:36 72° W 22:57:09 33° S
ATLAS 3B R/B 4.2 22:49:53 10° NNW 22:56:00 29° NE 23:01:48 10° E
DELTA 2 DEB (DPAF) 4.3 22:53:54 27° S 22:56:19 70° WSW 23:00:48 10° NNW
Cosmos 2333 4.2 22:51:35 10° NNW 22:57:20 84° ENE 23:00:23 29° SSE
NOSS 0 Rocket 4.4 22:51:55 10° NNW 22:57:55 52° ENE 23:01:23 25° SE
SAR-Lupe-2 3.6 22:57:06 43° SE 22:58:05 64° ENE 23:01:39 10° N
NOSS 3-1 (C) 3.3 22:53:52 10° SSW 22:59:43 79° ESE 23:06:15 10° NE
Cosmos 2237 Rocket 3.0 22:56:40 10° NNW 23:02:04 41° ENE 23:05:04 23° ESE
FALCON 9 R/B 3.9 22:40:12 10° WSW 23:04:31 56° S 23:09:35 20° ESE
Iridium 2 3.6 23:03:47 43° SSE 23:04:56 75° E 23:08:48 10° N
Cosmos 2082 4.5 23:03:38 29° SE 23:05:10 34° ESE 23:10:16 10° NE
Cosmos 1862 Rocket 3.8 23:09:03 10° N 23:13:20 54° E 23:14:29 41° SE
Cosmos 2360 Rocket 3.7 23:11:02 10° NW 23:15:41 27° WSW 23:19:14 15° SSW
Cosmos 2150 Rocket 4.1 23:11:47 18° SSW 23:15:58 81° WNW 23:21:29 10° NNE
CARTOSAT-1 3.8 23:14:27 35° S 23:16:07 64° WSW 23:20:25 10° NNW
Landsat 7 4.5 23:13:55 26° SSW 23:16:19 49° W 23:20:57 10° NNW
Cosmos 1898 Rocket 3.5 23:13:30 19° SSW 23:17:14 80° WNW 23:22:28 10° NNE
DMSP B5D2-2 4.1 23:15:08 10° NNE 23:20:23 84° WNW 23:23:22 26° SSW
Cosmos 1633 Rocket 3.9 23:19:20 20° SW 23:22:03 47° WNW 23:26:18 10° N
Sich 1 4.0 23:19:29 19° SW 23:22:23 45° WNW 23:26:39 10° N
Spot 4 3.9 23:23:44 38° S 23:25:35 73° WSW 23:30:28 10° NNW
Cosmos 292 Rocket 3.9 23:26:43 10° NNW 23:31:26 63° WSW 23:32:54 41° SSW
Meteor 1-4 Rocket 3.7 23:28:28 10° NNW 23:31:59 37° W 23:32:55 32° SW
Terra 2.4 23:30:16 31° SSW 23:32:11 48° W 23:36:49 10° NNW
Cosmos 1626 2.0 23:34:25 70° S 23:34:50 87° E 23:38:36 10° N
Cosmos 1346 3.4 23:36:17 65° NNW 23:36:17 65° NNW 23:39:00 10° N
SeaSat 1 2.7 23:38:15 39° ESE 23:39:57 62° ENE 23:44:50 10° NNW
Cosmos 2227 Rocket 2.1 23:39:32 38° S 23:41:41 70° ESE 23:47:20 10° NNE
Cosmos 1241 Rocket 4.4 23:41:25 33° SSW 23:44:18 69° ESE 23:50:31 10° NE
ALOS 2 4.0 23:44:00 24° E 23:45:01 27° ENE 23:48:43 10° N
Cosmos 2333 Rocket 2.2 23:41:29 10° NNW 23:47:15 81° WSW 23:49:11 44° SSE
Cosmos 1869 3.3 23:44:28 10° NNW 23:48:31 73° W 23:49:01 63° SSW
Lacrosse 4 Rocket 3.0 23:45:27 10° N 23:49:21 29° NE 23:50:55 23° E
SL-16 R/B 2.9 23:47:47 10° NNW 23:53:17 47° ENE 23:55:32 31° ESE
BREEZE-M DEB (TANK) 4.3 23:40:54 10° WNW 23:53:30 51° N 23:57:11 10° E
